Weather in Babayevo

Russia / Vladimir Oblast     56°06′15″N   40°04′26″E
temp.,
°C
wind,
m/s
gust,
m/s
humid.,
%
clouds,
%
prec.,
mm/h
press.,
hPa
HPBL,
m
21 january, thu
thu2100:00−12wsw489499 0.1 1020247
03:00−16wsw369673 0.1 1020124
06:00−16wsw399249 0.0 1021201
09:00−15sw489075 0.0 1019263
12:00−12ssw4887100 0.0 1018342
15:00−11s4894100 0.3 1016399
18:00−11ssw4994100 0.8 1015510
21:00−11ssw2596100 1.0 1015224
22 january, fri
fri2200:00−12ssw2296100 0.1 101522
03:00−13s2296100 0.1 101520
06:00−11sse249699 0.1 1014140
09:00−9sse369599 0.9 1014209
12:00−5s3696100 0.4 1013228
15:00−2s3797100 0.7 1013276
18:000sw3996100 0.1 1012470
21:000s4897100 0.1 1012346
23 january, sat
sat2300:00+1s4899100 0.3 1012265
03:00+1ssw41098100 0.8 1011341
06:00+1ssw4999100 0.1 1010315
09:00+1ssw51197100 0.5 1011527
12:00+1ssw49100100 0.2 1011352
15:00+1ssw41198100 1.1 1011457
18:00+1ssw51098100 0.6 1012424
21:00+1ssw41099100 1.3 1012382
24 january, sun
sun2400:00+1ssw41099100 0.6 1012379
03:00+1s3897100 0.8 1013280
06:00+1ssw41098100 0.2 1013298
09:00+1ssw4109899 0.3 1013302
12:00+1s49100100 0.1 1013301
15:00+1s41099100 0.2 1013371
18:00+1s41098100 0.0 1013365
21:00+1s41198100 0.3 1014424
25 january, mon
mon2500:00+2sse51393100 0.0 1013431
03:00+1sse51485100 0.0 1013531
06:00−1sse51388100 0.0 1012529
09:00−1sse51295100 0.4 1012491
12:000sse51098100 0.4 1013438
15:00+1sse4999100 0.6 1013360
18:00+1sse41097100 0.2 1014369
21:00+1s4997100 0.2 1014387